User: anonymous   Login
Location: Équennes
(49.7375°N, 1.9622°E)
Time: 00:06:30
(UTC+00:00)
Language:

Cosmos 2369 - Orbit

View from above orbital plane
View from above orbital plane
View from above satellite
View from above satellite

Ground track
Ground track

The orbit data is extracted from the following two-line orbital elements,

1 26069U 00006A   23154.29832427  .00000297  00000-0  18275-3 0  9995
2 26069  70.9932 117.9047 0011474 180.3155 179.7961 14.13543769467093
Epoch (UTC): 03 June 2023 07:09:35
Eccentricity: 0.0011474
inclination: 70.9932°
perigee height: 839 km
apogee height: 855 km
right ascension of ascending node: 117.9047°
argument of perigee: 180.3155°
revolutions per day: 14.13543769
mean anomaly at epoch: 179.7961°
orbit number at epoch: 46709

The dashed part of the orbit path shows where the satellite is in the earth's shadow,  

DLR